Find Starlink 31174

NORAD ID: 58808 Int'l Des: 2024-012 Owner: SPXS Country: US Constellation: starlink operational
LEOCIRCULAR

Live Position

Loading 3D Globe...

About Starlink 31174

Description loading...

Upcoming Passes

Passes for default location (London). Set your location on the main map for personalized predictions.

Altitude History

Loading altitude history...

Two-Line Element Set

1 58808U 24012X 26105.91432100 .00001839 00000-0 76337-4 0 9993
2 58808 43.0016 314.6206 0001474 264.6755 95.3929 15.27583014126932
Epoch: Apr 15, 2026 • Age: 7 hours

Current Status

Altitude 487.1 km
Velocity 7.63 km/s
Sub-Earth Point 42.80°N, 138.14°E
Launch Date Jan 15, 2024
Age 2.2 years
Type internet

Technical Details

Classification Payload
Mass 730.00 kg
Dry Mass 700.00 kg
Total Mass 730.00 kg
Length 0.30 m
Diameter 4.10 m
Span 29.00 m
Shape Box + pan
Manufacturer SPXS
Bus Type Starlink V2M
Phase Status In Orbit
Owner/State SPXS/US

Most Searched